EW6254 Weather Reports


Display with metric or nautical units.
time (UTC)temp
F
wind
direction
speed
MPH
gust
MPH
rain 1hr
in
rain 24hr
in
rain mn
in
humidity
%
barometer
mb
20170724224508 84 153 5.0 13.0 0.00 0.00 0.00 57 1011.3
20170724223501 84 158 5.0 11.0 0.00 0.00 0.00 56 1011.3
20170724222520 84 136 5.0 11.0 0.00 0.00 0.00 56 1011.3
20170724221537 84 132 5.0 11.0 0.00 0.00 0.00 56 1011.2
20170724220520 85 152 4.0 11.0 0.00 0.00 0.00 56 1011.2
20170724215538 84 128 5.0 12.0 0.00 0.00 0.00 54 1011.2
20170724214528 84 116 5.0 12.0 0.00 0.00 0.00 55 1011.2
20170724213542 84 134 6.0 11.0 0.00 0.00 0.00 56 1011.3
20170724212546 84 146 4.0 11.0 0.00 0.00 0.00 55 1011.4
20170724211539 85 182 5.0 12.0 0.00 0.00 0.00 54 1011.4
20170724210556 85 134 5.0 12.0 0.00 0.00 0.00 55 1011.5
20170724205553 85 150 3.0 12.0 0.00 0.00 0.00 55 1011.7
20170724204545 85 163 5.0 12.0 0.00 0.00 0.00 55 1012.0
20170724203509 85 110 5.0 12.0 0.00 0.00 0.00 55 1012.0
20170724202506 85 126 5.0 10.0 0.00 0.00 0.00 53 1012.0
20170724201503 85 101 3.0 8.0 0.00 0.00 0.00 55 1012.0
20170724200512 85 158 3.0 8.0 0.00 0.00 0.00 55 1012.3
20170724195531 84 211 3.0 10.0 0.00 0.00 0.00 56 1012.4
20170724194533 84 153 3.0 10.0 0.00 0.00 0.00 54 1012.4
20170724193505 84 150 4.0 10.0 0.00 0.00 0.00 55 1012.4
20170724192445 84 155 4.0 9.0 0.00 0.00 0.00 55 1012.4
20170724191409 84 109 3.0 7.0 0.00 0.00 0.00 54 1012.5
20170724190347 83 188 2.0 7.0 0.00 0.00 0.00 56 1012.5
20170724185321 83 157 3.0 7.0 0.00 0.00 0.00 56 1012.5
20170724184246 83 146 3.0 9.0 0.00 0.00 0.00 56 1012.5
20170724183230 82 165 3.0 9.0 0.00 0.00 0.00 56 1012.7
20170724182156 82 170 3.0 9.0 0.00 0.00 0.00 55 1012.7
20170724181137 82 138 4.0 12.0 0.00 0.00 0.00 55 1012.8
20170724180159 82 128 3.0 8.0 0.00 0.00 0.00 56 1013.0
20170724175125 83 162 2.0 6.0 0.00 0.00 0.00 56 1013.0
20170724174055 82 182 2.0 7.0 0.00 0.00 0.00 57 1013.1
20170724173054 81 145 4.0 7.0 0.00 0.00 0.00 57 1013.2
20170724172059 81 120 2.0 8.0 0.00 0.00 0.00 57 1013.4
20170724171027 81 157 2.0 8.0 0.00 0.00 0.00 58 1013.4
20170724170007 81 88 2.0 6.0 0.00 0.00 0.00 56 1013.5
20170724165005 80 127 3.0 8.0 0.00 0.00 0.00 58 1013.5
20170724164005 79 155 3.0 10.0 0.00 0.00 0.00 59 1013.7
20170724163020 79 105 3.0 10.0 0.00 0.00 0.00 59 1013.7
20170724162025 79 93 2.0 8.0 0.00 0.00 0.00 59 1013.7
20170724161046 79 150 2.0 7.0 0.00 0.00 0.00 60 1013.8
20170724160039 78 129 2.0 5.0 0.00 0.00 0.00 61 1013.8
20170724155017 77 229 2.0 7.0 0.00 0.00 0.00 63 1013.8
20170724153958 76 108 2.0 7.0 0.00 0.00 0.00 64 1013.8
20170724152939 76 219 2.0 8.0 0.00 0.00 0.00 65 1014.0
20170724151902 75 174 5.0 8.0 0.00 0.00 0.00 65 1013.8
20170724150849 75 159 2.0 8.0 0.00 0.00 0.00 66 1013.7
20170724145858 74 129 3.0 8.0 0.00 0.00 0.00 66 1013.8
20170724144904 74 125 3.0 7.0 0.00 0.00 0.00 67 1014.0
20170724143829 73 119 3.0 8.0 0.00 0.00 0.00 67 1014.2
20170724142834 73 159 3.0 8.0 0.00 0.00 0.00 68 1014.3
20170724141851 73 142 3.0 6.0 0.00 0.00 0.00 68 1014.2
20170724140913 72 132 3.0 9.0 0.00 0.00 0.00 70 1014.3
20170724135854 71 82 5.0 9.0 0.00 0.00 0.00 70 1014.3
20170724134911 71 92 3.0 9.0 0.00 0.00 0.00 71 1014.2
20170724133918 71 130 3.0 7.0 0.00 0.00 0.00 73 1014.3
20170724132854 70 147 2.0 6.0 0.00 0.00 0.00 73 1014.4
20170724131851 70 100 2.0 6.0 0.00 0.00 0.00 74 1014.4
20170724130837 69 115 1.0 6.0 0.00 0.00 0.00 76 1014.2
20170724125835 68 153 2.0 5.0 0.00 0.00 0.00 78 1014.1
20170724124856 68 122 2.0 6.0 0.00 0.00 0.00 80 1014.0
20170724123852 67 132 3.0 6.0 0.00 0.00 0.00 81 1014.0
20170724122902 66 86 1.0 6.0 0.00 0.00 0.00 82 1014.0
20170724121923 66 81 0.0 6.0 0.00 0.00 0.00 83 1014.0
20170724120911 65 39 0.0 0.0 0.00 0.00 0.00 84 1014.1
20170724115857 65 63 0.0 0.0 0.00 0.00 0.00 85 1014.0
20170724114906 64 63 0.0 0.0 0.00 0.00 0.00 85 1013.9
20170724113850 64 63 0.0 0.0 0.00 0.00 0.00 85 1013.9
20170724112821 64 63 0.0 0.0 0.00 0.00 0.00 85 1013.9
20170724111827 64 67 0.0 0.0 0.00 0.00 0.00 84 1013.8
20170724110846 65 67 0.0 3.0 0.00 0.00 0.00 84 1013.8
20170724105902 65 61 0.0 2.0 0.00 0.00 0.00 84 1013.7
20170724104912 65 65 0.0 0.0 0.00 0.00 0.00 83 1013.6
20170724103835 65 70 0.0 0.0 0.00 0.00 0.00 83 1013.6
20170724102801 66 84 0.0 1.0 0.00 0.00 0.00 82 1013.5
20170724101738 66 84 0.0 0.0 0.00 0.00 0.00 81 1013.3
20170724100732 66 93 0.0 0.0 0.00 0.00 0.00 80 1013.2
20170724095720 66 94 0.0 0.0 0.00 0.00 0.00 80 1013.2
20170724094704 66 94 0.0 0.0 0.00 0.00 0.00 79 1013.3
20170724093723 66 94 0.0 0.0 0.00 0.00 0.00 79 1013.2
20170724092649 67 94 0.0 0.0 0.00 0.00 0.00 78 1013.1
20170724091634 67 94 0.0 0.0 0.00 0.00 0.00 78 1013.1
20170724090630 67 94 0.0 0.0 0.00 0.00 0.00 77 1013.0
20170724085639 67 94 0.0 0.0 0.00 0.00 0.00 77 1013.1
20170724084619 68 94 0.0 0.0 0.00 0.00 0.00 76 1013.0
20170724083613 68 93 0.0 0.0 0.00 0.00 0.00 75 1012.7
20170724082623 68 94 0.0 0.0 0.00 0.00 0.00 75 1012.6
20170724081557 68 0 0.0 0.0 0.00 0.00 0.00 75 1012.8
20170724080546 68 0 1.0 3.0 0.00 0.00 0.00 74 1012.8
20170724075552 69 0 1.0 6.0 0.00 0.00 0.00 74 1012.8
20170724074532 69 0 1.0 6.0 0.00 0.00 0.00 74 1012.7
20170724073552 69 0 1.0 5.0 0.00 0.00 0.00 74 1012.8
20170724072541 69 0 2.0 6.0 0.00 0.00 0.00 73 1012.9
20170724071508 69 0 3.0 7.0 0.00 0.00 0.00 73 1012.8
20170724070520 69 0 3.0 7.0 0.00 0.00 0.00 72 1012.9
20170724065537 69 0 3.0 9.0 0.00 0.00 0.00 72 1012.9
20170724064515 70 0 3.0 9.0 0.00 0.00 0.00 72 1012.9
20170724063438 70 0 3.0 8.0 0.00 0.00 0.00 72 1013.0
20170724062500 70 0 3.0 8.0 0.00 0.00 0.00 72 1013.0
20170724061452 70 0 4.0 7.0 0.00 0.00 0.00 72 1013.0
20170724060444 70 0 3.0 9.0 0.00 0.00 0.00 72 1013.1
20170724055458 70 0 4.0 9.0 0.00 0.00 0.00 72 1013.1
20170724054453 71 0 5.0 12.0 0.00 0.00 0.00 72 1013.1
20170724053515 71 0 5.0 12.0 0.00 0.00 0.00 71 1013.1
20170724052501 71 0 5.0 12.0 0.00 0.00 0.00 71 1013.1
20170724051449 72 0 3.0 10.0 0.00 0.00 0.00 70 1013.1
20170724050449 72 0 5.0 12.0 0.00 0.00 0.00 70 1012.9
20170724045414 73 0 4.0 10.0 0.00 0.00 0.00 69 1012.9
20170724044349 73 69 4.0 8.0 0.00 0.00 0.00 68 1012.6
20170724043315 74 0 2.0 6.0 0.00 0.00 0.00 68 1012.6
20170724042246 74 0 2.0 5.0 0.00 0.00 0.00 67 1012.4
20170724041229 74 0 2.0 6.0 0.00 0.00 0.00 67 1012.2
20170724040249 74 0 2.0 6.0 0.00 0.00 0.00 67 1012.1
20170724035309 75 0 2.0 7.0 0.00 0.00 0.00 66 1012.1
20170724034311 75 0 3.0 7.0 0.00 0.00 0.00 66 1012.0
20170724033302 75 0 2.0 6.0 0.00 0.00 0.00 66 1011.8
20170724032323 75 0 2.0 6.0 0.00 0.00 0.00 66 1011.7
20170724031342 76 0 2.0 4.0 0.00 0.00 0.00 65 1011.6
20170724030351 76 0 2.0 6.0 0.00 0.00 0.00 64 1011.4
20170724025318 76 68 2.0 7.0 0.00 0.00 0.00 62 1011.3
20170724024332 77 77 3.0 8.0 0.00 0.00 0.00 61 1011.1
20170724023351 77 12 3.0 8.0 0.00 0.00 0.00 59 1010.9
20170724022348 78 36 3.0 7.0 0.00 0.00 0.00 58 1010.7
20170724021400 78 59 3.0 8.0 0.00 0.00 0.00 56 1010.5
20170724020356 79 355 4.0 8.0 0.00 0.00 0.00 55 1010.4
20170724015352 79 24 3.0 9.0 0.00 0.00 0.00 54 1010.4
20170724014347 80 339 3.0 9.0 0.00 0.00 0.00 52 1010.2
20170724013344 80 27 3.0 7.0 0.00 0.00 0.00 51 1010.2
20170724012358 81 5 3.0 8.0 0.00 0.00 0.00 50 1010.0
20170724011409 81 0 5.0 10.0 0.00 0.00 0.00 49 1010.0
20170724010409 82 5 5.0 11.0 0.00 0.00 0.00 49 1010.0
20170724005351 82 42 4.0 11.0 0.00 0.00 0.00 48 1010.0
20170724004318 82 341 4.0 11.0 0.00 0.00 0.00 49 1010.0
20170724003314 82 10 6.0 11.0 0.00 0.00 0.00 49 1010.0
20170724002254 83 350 6.0 13.0 0.00 0.00 0.00 48 1010.1
20170724001236 83 20 6.0 14.0 0.00 0.00 0.00 48 1010.1
20170724000249 83 30 7.0 14.0 0.00 0.00 0.00 47 1010.2
20170723235254 83 19 6.0 14.0 0.00 0.00 0.00 48 1010.3
20170723234226 84 38 7.0 14.0 0.00 0.00 0.00 47 1010.3
20170723233216 85 22 5.0 11.0 0.00 0.00 0.00 46 1010.3
20170723232233 85 309 6.0 14.0 0.00 0.00 0.00 46 1010.3
20170723231209 85 14 7.0 14.0 0.00 0.00 0.00 44 1010.4
20170723230137 85 355 5.0 13.0 0.00 0.00 0.00 44 1010.4
20170723225117 86 9 5.0 13.0 0.00 0.00 0.00 45 1010.4